F4LPU-13 Weather Reports


time (UTC)temp
F
wind
direction
speed
knots
gust
knots
rain 1hr
in
rain 24hr
in
rain mn
in
humidity
%
barometer
mb
20260507090502 52 286 1.7 5.2 0.00 0.05 0.00 9 974.0
20260507081502 52 286 1.7 5.2 0.00 0.05 0.00 9 974.0
20260507072502 49 184 1.7 4.3 0.00 0.05 0.00 9 974.0
20260507063502 49 184 1.7 4.3 0.00 0.05 0.00 9 974.0
20260507054503 49 206 0.9 0.0 0.00 0.05 0.00 9 973.0
20260507045503 52 317 2.6 7.8 0.00 0.37 0.00 9 971.0
20260506195504 56 3 2.6 6.1 0.01 0.37 0.00 8 970.0
20260506195205 56 3 2.6 6.1 0.01 0.37 0.00 8 970.0
20260506190504 56 3 2.6 6.1 0.01 0.37 0.00 8 970.0
20260506181504 56 3 2.6 6.1 0.01 0.37 0.00 8 970.0
20260506172504 59 180 0.0 7.0 0.00 0.37 0.00 7 970.0
20260506163504 59 180 0.0 7.0 0.00 0.37 0.00 7 970.0
20260506163205 59 180 0.0 7.0 0.00 0.37 0.00 7 970.0
20260506154504 59 90 0.9 9.6 0.00 0.37 0.00 7 970.0
20260506145503 59 90 0.9 9.6 0.00 0.37 0.00 7 970.0
20260506140503 59 90 0.9 9.6 0.00 0.37 0.00 7 970.0
20260506131503 58 44 0.9 6.1 0.00 0.37 0.00 7 970.0
20260506122503 58 44 0.9 6.1 0.00 0.37 0.00 7 970.0
20260506113503 54 118 1.7 7.0 0.00 0.53 0.00 8 970.0
20260506104503 54 118 1.7 7.0 0.00 0.53 0.00 8 970.0
20260506095503 51 132 2.6 6.1 0.00 0.53 0.00 9 969.0